Date String (YYYY-MM-DD hh:mm:ss) UTC,Instrument flags,absolute air pressure of the measurement (hPa),sample flow rate (lpm),inlet stack bypass flow (lpm),air temperature of the measurement (°C),ambient temperature measured by the external sensor (°C),aerosol sample conditioner tube jacket temperature (°C),OPC LED temperature (°C),internal box temperature (°C),relative humidity of the measurement (%),span deviation,mass concentration of particles derived from Lorenz-Mie calculation of OPC scattering (μg/m³),mass concentration of particles derived from Lorenz-Mie calculation of OPC scattering (μg/m³),mass concentration of particles derived from Lorenz-Mie calculation of OPC scattering (μg/m³)
DateTimeUTC,F1_M11,P_M11,Q1_M11,Q2_M11,T1_M11,T2_M11,T3_M11,T4_M11,T5_M11,U1_M11,ZSPAN_M11,X0_M11,X2_M11,X1_M11
2023-11-24 06:00:00,SystemResetWarning,0833.7,4.99,000.00,019.0,018.5,000.0,027.3,020.2,15.7,0000.0,0009.18,0003.84,0003.23
2023-11-24 06:01:00,SystemResetWarning,0833.7,5.00,000.00,019.0,018.4,000.0,027.3,020.2,15.8,0000.0,0008.78,0003.81,0003.23
2023-11-24 06:02:00,SystemResetWarning,0833.7,5.01,000.00,019.0,018.3,000.0,027.3,020.1,15.8,0000.0,0008.55,0003.83,0003.23
2023-11-24 06:03:00,SystemResetWarning,0833.7,5.01,000.00,019.0,018.3,000.0,027.3,020.1,15.8,0000.0,0008.70,0003.84,0003.22
2023-11-24 06:04:00,SystemResetWarning,0833.7,4.99,000.00,018.9,018.2,000.0,027.3,020.1,15.8,0000.0,0008.38,0003.84,0003.22
2023-11-24 06:05:00,SystemResetWarning,0833.7,4.99,000.00,018.9,018.2,000.0,027.2,020.1,15.8,0000.0,0008.29,0003.84,0003.21
2023-11-24 06:06:00,SystemResetWarning,0833.7,5.01,000.00,018.9,018.2,000.0,027.2,020.0,15.8,0000.0,0008.53,0003.81,0003.20
2023-11-24 06:07:00,SystemResetWarning,0833.7,5.01,000.00,018.9,018.1,000.0,027.2,020.0,15.8,0000.0,0008.73,0003.86,0003.20
2023-11-24 06:08:00,SystemResetWarning,0833.7,5.00,000.00,018.9,018.1,000.0,027.2,020.0,15.8,0000.0,0008.80,0003.84,0003.20
2023-11-24 06:09:00,SystemResetWarning,0833.7,4.99,000.00,018.9,018.1,000.0,027.2,020.0,15.9,0000.0,0008.80,0003.83,0003.20
2023-11-24 06:10:00,SystemResetWarning,0833.7,4.99,000.00,018.9,018.0,000.0,027.2,020.0,15.9,0000.0,0008.82,0003.87,0003.20
2023-11-24 06:11:00,SystemResetWarning,0833.7,5.00,000.00,018.9,018.0,000.0,027.2,020.1,15.9,0000.0,0008.38,0003.84,0003.20
2023-11-24 06:12:00,SystemResetWarning,0833.7,5.00,000.00,018.8,018.0,000.0,027.2,020.0,15.9,0000.0,0008.65,0003.87,0003.20
2023-11-24 06:13:00,SystemResetWarning,0833.7,5.01,000.00,018.8,018.0,000.0,027.2,020.0,15.9,0000.0,0009.11,0003.90,0003.20
2023-11-24 06:14:00,SystemResetWarning,0833.7,5.00,000.00,018.8,018.0,000.0,027.2,020.0,15.9,0000.0,0009.28,0003.91,0003.20
2023-11-24 06:15:00,SystemResetWarning,0833.7,5.00,000.00,018.8,018.0,000.0,027.2,020.0,15.9,0000.0,0009.21,0003.88,0003.20
2023-11-24 06:16:00,SystemResetWarning,0833.7,5.00,000.00,018.8,017.9,000.0,027.2,020.0,15.9,0000.0,0009.03,0003.89,0003.22
2023-11-24 06:17:00,SystemResetWarning,0833.7,5.00,000.00,018.8,017.9,000.0,027.2,020.0,15.9,0000.0,0008.93,0003.93,0003.23
2023-11-24 06:18:00,SystemResetWarning,0833.6,5.00,000.00,018.8,017.9,000.0,027.2,020.0,15.9,0000.0,0009.49,0003.95,0003.24
2023-11-24 06:19:00,SystemResetWarning,0833.7,5.00,000.00,018.8,017.9,000.0,027.2,020.0,15.9,0000.0,0009.65,0003.95,0003.24
2023-11-24 06:20:00,SystemResetWarning,0833.7,5.00,000.00,018.8,017.9,000.0,027.2,020.0,15.9,0000.0,0010.27,0003.96,0003.25
2023-11-24 06:21:00,SystemResetWarning,0833.7,5.00,000.00,018.8,017.9,000.0,027.2,020.0,15.9,0000.0,0010.20,0003.94,0003.24
2023-11-24 06:22:00,SystemResetWarning,0833.7,5.00,000.00,018.8,017.9,000.0,027.2,020.0,15.9,0000.0,0010.17,0003.92,0003.24
2023-11-24 06:23:00,SystemResetWarning,0833.7,5.00,000.00,018.8,017.9,000.0,027.2,020.1,15.9,0000.0,0010.00,0003.90,0003.25
2023-11-24 06:24:00,SystemResetWarning,0833.7,5.01,000.00,018.9,018.0,000.0,027.2,020.5,15.9,0000.0,0009.37,0003.86,0003.25
2023-11-24 06:25:00,SystemResetWarning,0833.7,5.00,000.00,019.0,018.7,000.0,027.2,020.9,15.8,0000.0,0009.01,0003.84,0003.25
2023-11-24 06:26:00,SystemResetWarning,0833.7,4.99,000.00,019.1,018.9,000.0,027.2,020.8,15.7,0000.0,0009.05,0003.85,0003.26
2023-11-24 06:27:00,SystemResetWarning,0833.7,4.99,000.00,019.1,018.9,000.0,027.3,020.6,15.7,0000.0,0008.94,0003.82,0003.25
2023-11-24 06:28:00,SystemResetWarning,0833.7,4.99,000.00,019.1,018.8,000.0,027.3,020.4,15.7,0000.0,0008.89,0003.78,0003.25
2023-11-24 06:29:00,SystemResetWarning,0833.7,5.02,000.00,019.1,018.7,000.0,027.3,020.4,15.7,0000.0,0008.29,0003.78,0003.24
2023-11-24 06:30:00,SystemResetWarning,0833.6,5.00,000.00,019.1,018.6,000.0,027.3,020.3,15.7,0000.0,0007.84,0003.76,0003.25
2023-11-24 06:31:00,SystemResetWarning,0833.6,5.00,000.00,019.1,018.5,000.0,027.3,020.2,15.7,0000.0,0007.12,0003.78,0003.24
2023-11-24 06:32:00,SystemResetWarning,0833.6,5.01,000.00,019.0,018.4,000.0,027.3,020.2,15.7,0000.0,0006.90,0003.78,0003.24
2023-11-24 06:33:00,SystemResetWarning,0833.6,5.00,000.00,019.0,018.4,000.0,027.3,020.1,15.7,0000.0,0006.89,0003.78,0003.23
2023-11-24 06:34:00,SystemResetWarning,0833.6,5.00,000.00,019.0,018.3,000.0,027.3,020.2,15.7,0000.0,0006.72,0003.76,0003.22
2023-11-24 06:35:00,SystemResetWarning,0833.6,5.00,000.00,019.0,018.3,000.0,027.3,020.1,15.8,0000.0,0006.70,0003.76,0003.22
2023-11-24 06:36:00,SystemResetWarning,0833.6,4.99,000.00,019.0,018.2,000.0,027.3,020.1,15.8,0000.0,0006.53,0003.74,0003.22
2023-11-24 06:37:00,SystemResetWarning,0833.6,5.00,000.00,018.9,018.2,000.0,027.3,020.1,15.8,0000.0,0006.56,0003.76,0003.23
2023-11-24 06:38:00,SystemResetWarning,0833.6,5.00,000.00,018.9,018.1,000.0,027.3,020.0,15.8,0000.0,0006.64,0003.78,0003.23
2023-11-24 06:39:00,SystemResetWarning,0833.7,5.01,000.00,018.9,018.1,000.0,027.3,020.0,15.8,0000.0,0006.38,0003.77,0003.23
2023-11-24 06:40:00,SystemResetWarning,0833.7,5.01,000.00,018.9,018.1,000.0,027.3,020.1,15.9,0000.0,0006.23,0003.75,0003.23
2023-11-24 06:41:00,SystemResetWarning,0833.6,4.99,000.00,018.9,018.1,000.0,027.2,020.0,15.9,0000.0,0006.12,0003.72,0003.22
2023-11-24 06:42:00,SystemResetWarning,0833.6,4.98,000.00,018.9,018.1,000.0,027.3,020.0,15.9,0000.0,0005.85,0003.65,0003.22
2023-11-24 06:43:00,SystemResetWarning,0833.5,4.99,000.00,018.9,018.0,000.0,027.3,020.0,15.9,0000.0,0005.65,0003.62,0003.23
2023-11-24 06:44:00,SystemResetWarning,0833.6,5.00,000.00,018.9,018.0,000.0,027.3,020.0,15.9,0000.0,0005.50,0003.61,0003.24
2023-11-24 06:45:00,SystemResetWarning,0833.6,5.00,000.00,018.9,018.0,000.0,027.3,020.0,15.9,0000.0,0005.76,0003.65,0003.25
2023-11-24 06:46:00,SystemResetWarning,0833.6,5.01,000.00,018.9,018.0,000.0,027.3,020.0,16.0,0000.0,0005.82,0003.65,0003.25
2023-11-24 06:47:00,SystemResetWarning,0833.6,5.00,000.00,018.9,018.0,000.0,027.2,020.0,16.0,0000.0,0005.93,0003.66,0003.25
2023-11-24 06:48:00,SystemResetWarning,0833.6,4.99,000.00,018.8,018.0,000.0,027.2,020.0,16.0,0000.0,0005.89,0003.64,0003.23
2023-11-24 06:49:00,SystemResetWarning,0833.5,4.99,000.00,018.9,018.0,000.0,027.2,020.0,16.0,0000.0,0006.66,0003.64,0003.23
2023-11-24 06:50:00,SystemResetWarning,0833.5,4.99,000.00,018.8,018.0,000.0,027.2,020.0,16.0,0000.0,0006.75,0003.65,0003.23
2023-11-24 06:51:00,SystemResetWarning,0833.5,5.00,000.00,018.8,018.0,000.0,027.2,020.0,16.0,0000.0,0006.95,0003.65,0003.23
2023-11-24 06:52:00,SystemResetWarning,0833.5,5.00,000.00,018.8,018.0,000.0,027.2,020.0,16.0,0000.0,0007.16,0003.68,0003.23
2023-11-24 06:53:00,SystemResetWarning,0833.6,5.01,000.00,018.8,018.0,000.0,027.2,020.0,16.0,0000.0,0007.34,0003.73,0003.24
2023-11-24 06:54:00,SystemResetWarning,0833.6,5.01,000.00,018.8,018.0,000.0,027.2,020.0,16.0,0000.0,0007.39,0003.74,0003.25
2023-11-24 06:55:00,SystemResetWarning,0833.6,5.00,000.00,018.8,018.0,000.0,027.2,020.0,16.0,0000.0,0007.41,0003.74,0003.25
2023-11-24 06:56:00,SystemResetWarning,0833.6,4.98,000.00,018.8,018.0,000.0,027.2,020.0,16.0,0000.0,0007.38,0003.76,0003.26
2023-11-24 06:57:00,SystemResetWarning,0833.6,5.00,000.00,018.8,018.0,000.0,027.2,020.0,16.0,0000.0,0007.31,0003.75,0003.27
2023-11-24 06:58:00,SystemResetWarning,0833.6,5.00,000.00,018.8,017.9,000.0,027.2,020.0,16.0,0000.0,0007.21,0003.74,0003.28
2023-11-24 06:59:00,SystemResetWarning,0833.6,5.00,000.00,018.8,017.9,000.0,027.2,020.0,15.9,0000.0,0007.43,0003.77,0003.30
